| time (UTC) | temp F | wind direction | speed MPH | gust MPH | rain 1hr in | rain 24hr in | rain mn in | humidity % | barometer mb |
| 20260502123010 | 76 | 251 | 6.0 | 16.0 | 0.00 | 0.00 | 0.00 | 48 | 1018.2 |
| 20260502121511 | 75 | 202 | 6.0 | 17.0 | 0.00 | 0.00 | 0.00 | 48 | 1018.1 |
| 20260502114510 | 75 | 247 | 4.0 | 11.0 | 0.00 | 0.00 | 0.00 | 47 | 1018.5 |
| 20260502113009 | 76 | 263 | 5.0 | 15.0 | 0.00 | 0.00 | 0.00 | 46 | 1018.7 |
| 20260502111510 | 73 | 259 | 4.0 | 11.0 | 0.00 | 0.00 | 0.00 | 47 | 1018.7 |
| 20260502110010 | 73 | 255 | 5.0 | 13.0 | 0.00 | 0.00 | 0.00 | 48 | 1018.8 |
| 20260502104511 | 74 | 238 | 5.0 | 14.0 | 0.00 | 0.00 | 0.00 | 48 | 1019.0 |
| 20260502101509 | 73 | 258 | 4.0 | 11.0 | 0.00 | 0.00 | 0.00 | 44 | 1019.0 |
| 20260502091509 | 71 | 222 | 6.0 | 14.0 | 0.00 | 0.00 | 0.00 | 44 | 1019.4 |
| 20260502070041 | 65 | 146 | 3.0 | 6.0 | 0.00 | 0.00 | 0.00 | 46 | 1019.3 |
| 20260502063041 | 62 | 206 | 4.0 | 9.0 | 0.00 | 0.00 | 0.00 | 49 | 1019.6 |
| 20260502061543 | 62 | 162 | 2.0 | 7.0 | 0.00 | 0.00 | 0.00 | 50 | 1019.7 |
| 20260502060041 | 61 | 147 | 2.0 | 7.0 | 0.00 | 0.00 | 0.00 | 51 | 1019.6 |
| 20260502054542 | 60 | 132 | 2.0 | 4.0 | 0.00 | 0.00 | 0.00 | 53 | 1019.8 |
| 20260502053042 | 58 | 148 | 1.0 | 4.0 | 0.00 | 0.00 | 0.00 | 55 | 1019.7 |
| 20260502051544 | 56 | 109 | 1.0 | 2.0 | 0.00 | 0.00 | 0.00 | 58 | 1019.7 |
| 20260502050041 | 55 | 91 | 1.0 | 2.0 | 0.00 | 0.00 | 0.00 | 60 | 1019.7 |
| 20260502043042 | 53 | 125 | 2.0 | 4.0 | 0.00 | 0.00 | 0.00 | 63 | 1019.8 |
| 20260502041542 | 53 | 105 | 1.0 | 4.0 | 0.00 | 0.00 | 0.00 | 63 | 1020.0 |
| 20260502034543 | 53 | 107 | 1.0 | 2.0 | 0.00 | 0.00 | 0.00 | 63 | 1020.2 |
| 20260502033041 | 53 | 131 | 1.0 | 2.0 | 0.00 | 0.00 | 0.00 | 62 | 1020.3 |
| 20260502031542 | 54 | 106 | 1.0 | 2.0 | 0.00 | 0.00 | 0.00 | 61 | 1020.2 |
| 20260502024544 | 54 | 125 | 1.0 | 4.0 | 0.00 | 0.00 | 0.00 | 59 | 1020.4 |
| 20260502023043 | 55 | 108 | 1.0 | 4.0 | 0.00 | 0.00 | 0.00 | 59 | 1020.4 |
| 20260502021542 | 55 | 114 | 1.0 | 4.0 | 0.00 | 0.00 | 0.00 | 58 | 1020.7 |
| 20260502020042 | 55 | 106 | 0.0 | 2.0 | 0.00 | 0.00 | 0.00 | 57 | 1020.7 |
| 20260502014544 | 56 | 115 | 1.0 | 2.0 | 0.00 | 0.00 | 0.00 | 56 | 1020.9 |
| 20260502013041 | 56 | 123 | 1.0 | 4.0 | 0.00 | 0.00 | 0.00 | 55 | 1021.0 |
| 20260502011543 | 57 | 123 | 2.0 | 4.0 | 0.00 | 0.00 | 0.00 | 53 | 1021.1 |
| 20260502010042 | 58 | 114 | 2.0 | 4.0 | 0.00 | 0.00 | 0.00 | 52 | 1021.3 |
| 20260502004541 | 58 | 126 | 3.0 | 6.0 | 0.00 | 0.00 | 0.00 | 51 | 1021.3 |
| 20260502003042 | 59 | 120 | 3.0 | 6.0 | 0.00 | 0.00 | 0.00 | 50 | 1021.5 |
| 20260502001542 | 59 | 131 | 3.0 | 7.0 | 0.00 | 0.00 | 0.00 | 49 | 1021.5 |
| 20260502000042 | 59 | 109 | 2.0 | 4.0 | 0.00 | 0.00 | 0.00 | 49 | 1021.8 |
| 20260501234543 | 59 | 125 | 2.0 | 7.0 | 0.00 | 0.00 | 0.00 | 49 | 1022.0 |
| 20260501233042 | 60 | 129 | 2.0 | 4.0 | 0.00 | 0.00 | 0.00 | 48 | 1021.9 |
| 20260501231541 | 60 | 120 | 3.0 | 4.0 | 0.00 | 0.00 | 0.00 | 47 | 1021.9 |
| 20260501230042 | 61 | 121 | 2.0 | 4.0 | 0.00 | 0.00 | 0.00 | 46 | 1022.1 |
| 20260501224541 | 61 | 121 | 2.0 | 4.0 | 0.00 | 0.00 | 0.00 | 46 | 1022.0 |
| 20260501223041 | 61 | 116 | 2.0 | 4.0 | 0.00 | 0.00 | 0.00 | 46 | 1022.1 |
| 20260501221541 | 62 | 124 | 2.0 | 4.0 | 0.00 | 0.00 | 0.00 | 44 | 1022.5 |
| 20260501220041 | 62 | 129 | 2.0 | 4.0 | 0.00 | 0.00 | 0.00 | 44 | 1022.2 |
| 20260501214542 | 63 | 113 | 2.0 | 4.0 | 0.00 | 0.00 | 0.00 | 43 | 1022.3 |
| 20260501213041 | 63 | 124 | 2.0 | 4.0 | 0.00 | 0.00 | 0.00 | 42 | 1022.1 |
| 20260501211542 | 64 | 117 | 2.0 | 4.0 | 0.00 | 0.00 | 0.00 | 41 | 1022.3 |
| 20260501210042 | 65 | 140 | 1.0 | 4.0 | 0.00 | 0.00 | 0.00 | 39 | 1022.4 |
| 20260501203041 | 65 | 150 | 1.0 | 4.0 | 0.00 | 0.00 | 0.00 | 39 | 1022.7 |
| 20260501201541 | 66 | 135 | 0.0 | 2.0 | 0.00 | 0.00 | 0.00 | 39 | 1022.6 |
| 20260501194541 | 68 | 150 | 1.0 | 4.0 | 0.00 | 0.00 | 0.00 | 37 | 1022.6 |
| 20260501193041 | 68 | 190 | 2.0 | 4.0 | 0.00 | 0.00 | 0.00 | 36 | 1022.6 |
| 20260501191541 | 69 | 177 | 2.0 | 6.0 | 0.00 | 0.00 | 0.00 | 34 | 1022.4 |
| 20260501190041 | 70 | 201 | 1.0 | 4.0 | 0.00 | 0.00 | 0.00 | 34 | 1022.6 |
| 20260501183041 | 73 | 192 | 3.0 | 6.0 | 0.00 | 0.00 | 0.00 | 31 | 1022.4 |
| 20260501181541 | 74 | 198 | 4.0 | 7.0 | 0.00 | 0.00 | 0.00 | 30 | 1022.2 |
| 20260501180041 | 74 | 171 | 4.0 | 9.0 | 0.00 | 0.00 | 0.00 | 30 | 1022.5 |
| 20260501170041 | 76 | 177 | 5.0 | 9.0 | 0.00 | 0.00 | 0.00 | 27 | 1022.3 |
| 20260501164543 | 76 | 188 | 5.0 | 11.0 | 0.00 | 0.00 | 0.00 | 27 | 1022.2 |
| 20260501163041 | 75 | 123 | 5.0 | 11.0 | 0.00 | 0.00 | 0.00 | 29 | 1022.5 |
| 20260501161541 | 75 | 124 | 6.0 | 14.0 | 0.00 | 0.00 | 0.00 | 29 | 1022.6 |
| 20260501160041 | 75 | 125 | 6.0 | 11.0 | 0.00 | 0.00 | 0.00 | 29 | 1022.8 |
| 20260501154541 | 75 | 97 | 6.0 | 13.0 | 0.00 | 0.00 | 0.00 | 29 | 1023.1 |
| 20260501153040 | 75 | 143 | 6.0 | 13.0 | 0.00 | 0.00 | 0.00 | 28 | 1023.1 |
| 20260501151540 | 76 | 134 | 5.0 | 14.0 | 0.00 | 0.00 | 0.00 | 28 | 1023.5 |
| 20260501150040 | 76 | 144 | 4.0 | 14.0 | 0.00 | 0.00 | 0.00 | 29 | 1023.5 |